Total_Precipitation_Accumulation
0.12 0.15 0.19 0.17 0.19 0.22 0.27 0.41 0.58 0.42 0.11 0.03 0.04 0.07 0.13 0.14 0.16 0.15 0.13 0.14 0.18 0.24 0.30 0.30 0.28 0.33 0.51 1.00 1.89 3.16 3.80 3.15 2.20 1.76 1.54 1.58 1.78 2.12
0.16 0.20 0.21 0.21 0.22 0.23 0.29 0.33 0.46 0.58 0.34 0.05 0.04 0.08 0.18 0.19 0.17 0.15 0.15 0.16 0.16 0.17 0.20 0.23 0.25 0.28 0.36 0.56 1.01 1.78 2.95 3.57 3.12 2.36 1.82 1.73 1.81 2.05
0.18 0.22 0.23 0.26 0.29 0.26 0.29 0.32 0.33 0.40 0.38 0.10 0.03 0.05 0.15 0.21 0.20 0.15 0.15 0.16 0.15 0.16 0.18 0.21 0.24 0.29 0.37 0.47 0.65 1.02 1.70 2.66 3.27 3.03 2.46 2.04 1.86 1.85
0.20 0.24 0.26 0.25 0.26 0.24 0.27 0.28 0.25 0.24 0.29 0.18 0.05 0.05 0.10 0.18 0.26 0.27 0.21 0.19 0.18 0.18 0.20 0.24 0.29 0.30 0.33 0.41 0.55 0.76 1.11 1.66 2.42 2.88 2.78 2.40 2.05 1.94
0.23 0.26 0.26 0.26 0.25 0.22 0.27 0.27 0.21 0.19 0.23 0.24 0.11 0.06 0.10 0.13 0.24 0.34 0.30 0.26 0.23 0.21 0.21 0.23 0.28 0.33 0.32 0.33 0.41 0.56 0.75 1.00 1.42 2.18 2.70 2.61 2.38 2.19
0.17 0.17 0.24 0.34 0.33 0.31 0.33 0.27 0.23 0.25 0.26 0.28 0.19 0.11 0.13 0.15 0.24 0.35 0.40 0.38 0.32 0.26 0.25 0.24 0.28 0.37 0.36 0.29 0.25 0.31 0.49 0.79 1.08 1.50 2.12 2.52 2.44 2.31
0.11 0.10 0.19 0.32 0.36 0.49 0.58 0.48 0.44 0.47 0.40 0.37 0.32 0.26 0.24 0.26 0.31 0.33 0.45 0.49 0.43 0.37 0.31 0.26 0.26 0.26 0.28 0.27 0.25 0.25 0.30 0.46 0.74 1.08 1.45 1.93 2.30 2.35
0.11 0.08 0.11 0.22 0.25 0.30 0.40 0.47 0.52 0.60 0.60 0.54 0.49 0.43 0.35 0.34 0.33 0.38 0.43 0.52 0.54 0.49 0.43 0.32 0.31 0.33 0.29 0.27 0.29 0.26 0.28 0.34 0.51 0.79 1.09 1.39 1.78 2.17
0.09 0.07 0.08 0.16 0.22 0.28 0.31 0.29 0.28 0.37 0.54 0.60 0.60 0.46 0.40 0.35 0.38 0.42 0.42 0.48 0.54 0.63 0.64 0.52 0.40 0.39 0.37 0.42 0.46 0.35 0.31 0.33 0.41 0.59 0.84 1.09 1.35 1.68
0.05 0.06 0.06 0.11 0.23 0.40 0.39 0.33 0.28 0.32 0.46 0.54 0.68 0.66 0.54 0.51 0.62 0.70 0.67 0.52 0.44 0.58 0.73 0.73 0.58 0.48 0.52 0.56 0.56 0.45 0.37 0.34 0.39 0.52 0.68 0.86 1.07 1.33
0.03 0.04 0.06 0.09 0.21 0.35 0.32 0.24 0.18 0.22 0.28 0.39 0.49 0.57 0.57 0.61 0.70 0.82 0.79 0.61 0.53 0.62 0.76 0.85 0.85 0.72 0.77 0.84 0.76 0.61 0.46 0.42 0.42 0.48 0.56 0.65 0.83 1.13
0.04 0.02 0.06 0.15 0.22 0.28 0.21 0.18 0.27 0.28 0.24 0.21 0.22 0.29 0.35 0.41 0.54 0.76 0.94 0.83 0.67 0.78 0.87 0.88 1.04 0.96 1.03 1.09 0.97 0.73 0.54 0.50 0.51 0.51 0.50 0.50 0.60 0.78
0.06 0.03 0.04 0.14 0.17 0.18 0.16 0.18 0.39 0.36 0.20 0.17 0.18 0.22 0.28 0.37 0.50 0.68 0.90 1.03 0.88 0.81 0.87 0.93 1.16 1.07 1.01 1.08 1.07 0.99 0.69 0.52 0.51 0.58 0.59 0.53 0.50 0.50
0.06 0.04 0.05 0.10 0.09 0.09 0.09 0.15 0.18 0.13 0.10 0.12 0.14 0.18 0.26 0.35 0.47 0.62 0.83 0.98 1.01 0.88 0.79 0.87 1.14 1.11 0.92 0.85 0.97 1.11 0.96 0.71 0.56 0.56 0.59 0.71 0.68 0.59
0.06 0.05 0.05 0.05 0.04 0.03 0.04 0.07 0.06 0.06 0.10 0.13 0.16 0.21 0.28 0.37 0.42 0.46 0.60 0.84 0.98 0.99 0.93 0.91 1.11 1.20 1.04 0.86 0.83 1.00 1.09 1.01 0.77 0.68 0.64 0.62 0.57 0.51
0.11 0.05 0.04 0.03 0.03 0.01 0.01 0.01 0.01 0.05 0.11 0.15 0.17 0.18 0.18 0.24 0.34 0.46 0.53 0.70 0.89 1.03 1.07 1.12 1.28 1.45 1.30 1.04 0.90 0.90 0.92 1.06 1.01 0.85 0.74 0.67 0.58 0.41
0.14 0.14 0.08 0.05 0.04 0.02 0.01 0.01 0.01 0.02 0.04 0.07 0.12 0.14 0.15 0.19 0.27 0.39 0.55 0.69 0.85 1.02 1.15 1.30 1.42 1.54 1.56 1.47 1.28 1.05 0.88 0.86 0.94 0.93 0.85 0.82 0.77 0.57
0.13 0.13 0.07 0.04 0.03 0.03 0.02 0.02 0.01 0.02 0.03 0.04 0.08 0.13 0.18 0.23 0.26 0.31 0.45 0.64 0.83 0.96 1.06 1.21 1.35 1.46 1.65 1.82 1.66 1.27 0.98 0.86 0.95 1.02 0.92 0.86 0.92 0.80
0.13 0.08 0.04 0.03 0.03 0.03 0.03 0.04 0.03 0.02 0.02 0.03 0.05 0.09 0.15 0.19 0.23 0.27 0.36 0.50 0.71 0.89 1.01 1.09 1.18 1.26 1.41 1.72 1.92 1.58 1.18 0.94 0.95 1.16 1.16 0.95 0.85 0.85
0.10 0.07 0.04 0.04 0.04 0.04 0.05 0.05 0.04 0.02 0.02 0.02 0.03 0.05 0.09 0.15 0.18 0.23 0.30 0.44 0.60 0.77 0.88 0.99 1.14 1.23 1.25 1.29 1.48 1.68 1.57 1.17 0.94 1.10 1.29 1.22 1.11 1.09
0.07 0.05 0.05 0.05 0.04 0.05 0.05 0.05 0.05 0.04 0.03 0.03 0.03 0.04 0.06 0.09 0.14 0.19 0.25 0.35 0.47 0.62 0.75 0.85 1.02 1.15 1.24 1.18 1.16 1.34 1.59 1.59 1.17 0.99 1.11 1.18 1.23 1.23
0.05 0.05 0.05 0.05 0.05 0.05 0.05 0.05 0.05 0.04 0.03 0.03 0.03 0.03 0.04 0.06 0.10 0.14 0.19 0.26 0.36 0.51 0.67 0.79 0.90 1.06 1.25 1.33 1.33 1.32 1.44 1.63 1.64 1.42 1.22 1.04 0.91 0.89
0.07 0.06 0.05 0.05 0.05 0.06 0.06 0.05 0.06 0.05 0.04 0.03 0.03 0.03 0.03 0.04 0.06 0.10 0.15 0.21 0.29 0.40 0.53 0.69 0.84 0.97 1.17 1.35 1.43 1.40 1.35 1.41 1.50 1.53 1.65 1.46 1.01 0.70